Home   Weather   Sutton Coldfield   Past weeks

Flag for United Kingdom Past Weather in Sutton Coldfield, England, United Kingdom — Yesterday and Last 2 Weeks

Now
64 °F

Passing clouds.


Feels Like: 64 °F
Forecast: 52 / 64 °F
Wind: 10 mph from Southwest

Location: Birmingham / Airport

Current Time: Sep 28, 2016 at 11:16:04 PM

Latest Report: Sep 28, 2016 at 10:20 PM


Visibility: N/A

Pressure: 30.04 "Hg

Humidity: 94%

Dew Point: 63 °F

Location of Sutton ColdfieldLocation

Past Weather in Sutton Coldfield — Graph

°F

Sutton Coldfield Temperature Yesterday

Maximum temperature yesterday: 68 °F (at 3:50 PM)
Minimum temperature yesterday: 54 °F (at 12:20 AM)
Average temperature yesterday: 60 °F

High & Low Weather Summary for the Past Weeks

 TemperatureHumidityPressure
High79 °F (Sep 14, 4:20 PM)100% (Sep 14, 12:20 AM)30.24 "Hg (Sep 14, 12:20 AM)
Low45 °F (Sep 23, 4:20 AM)52% (Sep 16, 1:50 PM)29.68 "Hg (Sep 25, 3:20 AM)
Average59 °F84%30.05 "Hg
* Reported Sep 13 10:20 PM — Sep 28 10:20 PM, Sutton Coldfield, Weather by CustomWeather, © 2016

Note: Actual official high and low records may vary slightly from our data, if they occured in-between our weather recording intervals... More about our weather records

Advertising

Sutton Coldfield Weather History for the Previous 24 Hours

Scroll right to see more
 ConditionsComfort  
Time TempWeatherWind HumidityBarometerVisibility
10:20 PM
Wed, Sep 28
64 °FPassing clouds.10 mph94%30.04 "HgN/A
9:50 PM64 °FPassing clouds.13 mph94%30.04 "HgN/A
9:20 PM64 °FPassing clouds.13 mph94%30.07 "HgN/A
8:50 PM64 °FPassing clouds.10 mph94%30.07 "HgN/A
8:20 PM64 °FPassing clouds.10 mph94%30.07 "HgN/A
7:50 PM64 °FPassing clouds.10 mph94%30.07 "HgN/A
7:20 PM64 °FPassing clouds.14 mph94%30.07 "HgN/A
6:50 PM64 °FPassing clouds.9 mph88%30.07 "HgN/A
6:20 PM64 °FPartly sunny.8 mph94%30.09 "HgN/A
5:50 PM66 °FScattered clouds.8 mph88%30.09 "HgN/A
5:20 PM66 °FPassing clouds.13 mph88%30.09 "HgN/A
4:50 PM68 °FPassing clouds.12 mph83%30.12 "HgN/A
4:20 PM68 °FScattered clouds.10 mph83%30.15 "HgN/A
3:50 PM68 °FScattered clouds.12 mph83%30.15 "HgN/A
3:20 PM70 °FScattered clouds.12 mph78%30.15 "HgN/A
2:50 PM70 °FScattered clouds.12 mph78%30.15 "HgN/A
2:20 PM68 °FBroken clouds.13 mph78%30.18 "HgN/A
1:50 PM66 °FPartly sunny.12 mph83%30.18 "HgN/A
1:20 PM68 °FPartly sunny.9 mph78%30.18 "HgN/A
12:50 PM66 °FPartly sunny.10 mph78%30.18 "HgN/A
12:20 PM64 °FPartly sunny.8 mph83%30.18 "HgN/A
11:50 AM63 °FPartly sunny.10 mph83%30.21 "HgN/A
11:20 AM64 °FPartly sunny.10 mph78%30.21 "HgN/A
10:50 AM63 °FScattered clouds.10 mph83%30.21 "HgN/A
10:20 AM63 °FPassing clouds.9 mph77%30.21 "HgN/A
9:50 AM61 °FPassing clouds.9 mph77%30.21 "HgN/A
9:20 AM59 °FPassing clouds.8 mph82%30.21 "HgN/A
8:50 AM59 °FPassing clouds.7 mph77%30.21 "HgN/A
8:20 AM57 °FPassing clouds.7 mph82%30.21 "HgN/A
7:50 AM57 °FPassing clouds.9 mph82%30.21 "HgN/A
7:20 AM57 °FPassing clouds.9 mph77%30.21 "HgN/A
6:50 AM55 °FPassing clouds.5 mph82%30.21 "HgN/A
6:20 AM54 °FClear.5 mph94%30.18 "Hg10 mi
5:50 AM54 °FPassing clouds.6 mph94%30.18 "HgN/A
5:20 AM52 °FPassing clouds.6 mph100%30.18 "HgN/A
4:50 AM52 °FClear.5 mph100%30.18 "Hg6 mi
4:20 AM54 °FPassing clouds.6 mph94%30.18 "HgN/A
3:50 AM54 °FClear.8 mph94%30.21 "Hg10 mi
3:20 AM54 °FPassing clouds.8 mph94%30.21 "HgN/A
2:50 AM54 °FPassing clouds.6 mph94%30.21 "HgN/A
2:20 AM55 °FPassing clouds.6 mph88%30.21 "HgN/A
1:50 AM55 °FPassing clouds.8 mph94%30.18 "HgN/A
1:20 AM55 °FPassing clouds.6 mph94%30.18 "HgN/A
12:50 AM55 °FClear.9 mph94%30.21 "Hg10 mi
12:20 AM55 °FPassing clouds.8 mph94%30.21 "HgN/A
11:50 PM
Tue, Sep 27
57 °FPassing clouds.9 mph88%30.21 "HgN/A
11:20 PM57 °FPassing clouds.8 mph88%30.21 "HgN/A
Weather by CustomWeather, © 2016

See weather overviewHow to use our weather pages